Das Wetter in  D-61279 Heinzenberg / Taunus





Wetter Minimum- & Maximum-Werte im Januar 2010

Standort: Heinzenberg / Taunus - Höhe 297 m         8° 24' 1" Ost 50° 21' 51" Nord
(   3-stündige Aktualisierung    letzte Aktualisierung um 20:46 am 31.01.2010  )


Messgrösse

Minimum

Maximum

Durchschnitt

Temperatur West /
Luftfeuchte West
Anklicken für Monats-Diagramm

-16,3 °C

05:24
27.01.2010

69 %

19:44
27.01.2010

4,3 °C

13:21
18.01.2010

99 %

00:04
01.01.2010

Temp

-3,1 °C

Feuchte

92 %

Temperatur Ost /
Luftfeuchte Ost
Anklicken für Monats-Diagramm

-16,3 °C

05:24
27.01.2010

--

--
--

4,1 °C

14:41
18.01.2010

--

--
--

-3,3 °C

--

Luftdruck Anklicken für Monats-Diagramm

981,8 hPa

19:10
29.01.2010

1041,7 hPa

23:49
26.01.2010

1015,9 hPa

Taupunkt

-17,8 °C

05:24
27.01.2010

3,2 °C

12:36
18.01.2010

-4,3 °C

Windchill
( gefühlte Temperatur )

-21,5 °C

22:52
08.01.2010

4,3 °C

13:21
18.01.2010

-5,4 °C

Windgeschwindigkeit /
Windrichtung
Anklicken für Monats-Diagramm

---

37,9 km/h / W

07:21
30.01.2010

5,9 km/h
O-SO

Helligkeit /
Sonnenschein
Anklicken für Monats-Diagramm
Anklicken für Monats-Diagramm

Sonnenschein:

26:20 Stunden

Max: 7:00 Std am
05.01.2010

61,4 klux

12:37
31.01.2010

8,6 klux

Solarstrahlung Anklicken für Monats-Diagramm

---

420 W/m²

12:37
31.01.2010

66 W/m²

Regenmenge
    Januar 2010
Anklicken für Monats-Diagramm

Insgesamt 29,2 l/m²

in 98:54 Stunden
an 21 Tagen

7,9 l/m²

04:10
17.01.2010

Gesamtmenge

29,2 l/m²

Regen-Tage
    Januar 2010
Anklicken für Monats-Diagramm

>   0 mm/Tag

>   2 mm/Tag

>   5 mm/Tag

> 10 mm/Tag

> 20 mm/Tag

21 Tage     
5 Tage     
2 Tage     
0 Tage     
0 Tage     

Eisige Tage Januar 2010 / 2009

Tmin ≤ -10°C     

5 Tage

/

7 Tage

Eistage Januar 2010 / 2009

Tmax <     0°C     

20 Tage

/

12 Tage

Frosttage Januar 2010 / 2009

Tmin ≤     0°C     

29 Tage

/

28 Tage

Kalte Tage Januar 2010 / 2009

Tmax <   10°C     

31 Tage

/

31 Tage

Warme Tage Januar 2010 / 2009

Tmax ≥   20°C     

0 Tage

/

0 Tage

Sommertage Januar 2010 / 2009

Tmax ≥   25°C     

0 Tage

/

0 Tage

Heisse Tage Januar 2010 / 2009

Tmax ≥   30°C     

0 Tage

/

0 Tage


Monatsdiagramm Januar 2010

Die Kurven zeigen den Durchschnittswert des jeweiligen Tages an


Wetter-Monatsübersicht Januar 2010
Datum
  Temperatur
   Luftdruck
   Wind
  Regen
   Luftfeuchte
   Helligkeit

Sonnen-
schein

Ø
Temp.

Min.
Temp.

Max.
Temp.

Ø
Luftdruck

Min.
Luftdruck

Max.
Luftdruck

Ø-Geschw.
Haupt-Richtg.

Max.
Wind

Menge /
Dauer

Ø
Feuchte

Min.
Feuchte

Max.
Feuchte

Ø
Helligkeit

Max.
Helligkeit

1.
Januar
-0,8 °C-2,3 °C
23:50
1,9 °C
00:09
997,2 hPa993,0 hPa
00:09
1006,0 hPa
23:50
4,8 km/h
N-NO
12,5 km/h
11:34  
0,2 l/m²
10 Minuten
95 %90 %
19:44
99 %
00:04
2,59 klux7,20 klux
11:39
--- 
2.
Januar
-2,5 °C-4,3 °C
08:30
0,3 °C
15:50
1015,5 hPa1006,0 hPa
00:00
1020,5 hPa
20:15
10,2 km/h
N-NO
29,5 km/h
08:30  
0,2 l/m²
5 Minuten
87 %76 %
15:50
95 %
01:20
15,46 klux45,10 klux
11:50
4:20 Std 
3.
Januar
-2,5 °C-5,8 °C
23:42
-0,5 °C
10:41
1019,5 hPa1017,2 hPa
10:31
1022,1 hPa
23:42
11,7 km/h
N-NO
29,6 km/h
14:51  
0,3 l/m²
3:15 Stunden
91 %86 %
18:46
97 %
08:51
5,0 klux16,8 klux
13:46
--- 
4.
Januar
-6,8 °C-12,4 °C
23:33
-3,4 °C
15:52
1018,6 hPa1015,7 hPa
23:08
1022,1 hPa
00:02
1,7 km/h
NW
8,9 km/h
11:17  
---
1:20 Stunden
87 %74 %
15:37
92 %
07:47
12,7 klux37,5 klux
12:52
3:10 Std 
5.
Januar
-10,8 °C-14,8 °C
08:33
-3,5 °C
15:03
1010,4 hPa1006,3 hPa
22:08
1015,8 hPa
01:23
0,3 km/h
NW
6,3 km/h
00:28  
---
88 %78 %
15:38
91 %
11:13
19,8 klux37,3 klux
12:33
7:00 Std 
6.
Januar
-9,3 °C-13,6 °C
04:44
-5,8 °C
22:40
1005,8 hPa1004,4 hPa
14:59
1007,6 hPa
23:55
0,1 km/h
NW
7,4 km/h
21:59  
---
90 %88 %
22:40
92 %
21:19
5,8 klux13,8 klux
12:24
--- 
7.
Januar
-6,0 °C-8,7 °C
23:26
-2,5 °C
15:00
1011,2 hPa1007,6 hPa
00:00
1016,3 hPa
23:26
0,4 km/h
NW
11,1 km/h
15:35  
---
1:36 Stunden
89 %82 %
15:05
92 %
08:15
8,3 klux23,2 klux
14:45
25 Min 
8.
Januar
-6,6 °C-9,4 °C
02:21
-4,0 °C
13:31
1016,9 hPa1014,8 hPa
23:47
1018,4 hPa
08:31
6,8 km/h
NW
31,0 km/h
22:52  
0,2 l/m²
5 Minuten
88 %82 %
14:26
93 %
00:11
7,6 klux18,7 klux
14:06
--- 
9.
Januar
-4,3 °C-5,5 °C
00:02
-3,3 °C
14:32
1012,4 hPa1010,3 hPa
17:17
1014,8 hPa
00:02
9,5 km/h
NO
27,9 km/h
02:47  
5,6 l/m²
7:55 Stunden
88 %83 %
01:12
94 %
08:07
2,7 klux9,3 klux
10:07
--- 
10.
Januar
-3,6 °C-4,4 °C
07:03
-2,5 °C
12:08
1014,3 hPa1010,4 hPa
00:48
1017,7 hPa
23:49
1,1 km/h
NO
13,8 km/h
00:53  
0,5 l/m²
3:57 Stunden
90 %86 %
00:03
95 %
23:49
5,8 klux15,4 klux
11:58
--- 
11.
Januar
-3,8 °C-4,5 °C
07:59
-2,4 °C
12:49
1017,9 hPa1016,7 hPa
06:09
1018,7 hPa
20:29
0,0 km/h
O-SO
1,9 km/h
13:54  
0,5 l/m²
2:05 Stunden
94 %91 %
13:44
97 %
09:59
4,9 klux15,8 klux
12:19
--- 
12.
Januar
-4,2 °C-5,3 °C
08:25
-3,4 °C
21:20
1016,0 hPa1010,3 hPa
23:01
1018,9 hPa
08:25
3,4 km/h
O-SO
17,8 km/h
21:20  
---
91 %88 %
22:20
94 %
10:00
4,6 klux9,5 klux
13:20
--- 
13.
Januar
-4,9 °C-6,6 °C
04:51
-3,6 °C
23:27
1009,0 hPa1007,6 hPa
06:46
1010,4 hPa
00:11
7,4 km/h
O-SO
32,9 km/h
12:21  
0,3 l/m²
3:51 Stunden
87 %79 %
12:21
93 %
23:02
10,2 klux36,5 klux
12:16
35 Min 
14.
Januar
-1,8 °C-3,5 °C
00:02
-0,3 °C
14:27
1010,8 hPa1009,2 hPa
03:22
1015,2 hPa
23:23
2,0 km/h
O-SO
14,6 km/h
15:17  
0,3 l/m²
3:29 Stunden
94 %91 %
15:17
97 %
06:32
6,2 klux13,6 klux
12:57
--- 
15.
Januar
-1,1 °C-2,2 °C
23:53
-0,6 °C
04:08
1022,8 hPa1015,2 hPa
00:03
1028,8 hPa
23:18
4,2 km/h
O-SO
15,6 km/h
23:03  
---
3:45 Stunden
93 %91 %
12:08
95 %
00:03
4,8 klux13,1 klux
11:58
--- 
16.
Januar
-2,5 °C-3,5 °C
07:23
-1,8 °C
14:28
1021,7 hPa1012,2 hPa
23:40
1027,9 hPa
03:13
16,6 km/h
O-SO
36,6 km/h
17:18  
0,8 l/m²
2:10 Stunden
95 %92 %
20:08
98 %
08:03
6,4 klux15,3 klux
12:13
--- 
17.
Januar
1,0 °C-1,8 °C
00:00
3,2 °C
16:20
1015,0 hPa1009,9 hPa
04:35
1023,0 hPa
23:51
9,9 km/h
W
31,3 km/h
18:20  
7,9 l/m²
12:31 Stunden
97 %93 %
22:10
99 %
06:10
5,4 klux13,9 klux
12:25
--- 
18.
Januar
2,5 °C1,0 °C
22:06
4,3 °C
13:21
1026,1 hPa1023,0 hPa
00:01
1027,4 hPa
22:06
5,1 km/h
W
22,6 km/h
02:06  
0,6 l/m²
3:25 Stunden
96 %89 %
14:46
98 %
01:26
9,1 klux32,6 klux
14:36
35 Min 
19.
Januar
1,2 °C0,6 °C
05:27
2,2 °C
14:47
1023,7 hPa1021,2 hPa
22:28
1026,3 hPa
02:47
0,7 km/h
NW
11,3 km/h
00:47  
---
2:30 Stunden
99 %96 %
00:02
99 %
04:32
5,4 klux16,2 klux
14:37
--- 
20.
Januar
0,8 °C-1,3 °C
08:03
2,3 °C
15:13
1017,3 hPa1014,7 hPa
15:13
1021,2 hPa
00:03
5,6 km/h
O-SO
29,0 km/h
12:38  
---
95 %88 %
22:49
99 %
00:03
9,9 klux33,4 klux
10:03
1:10 Std 
21.
Januar
0,5 °C-1,9 °C
03:09
1,9 °C
12:49
1022,6 hPa1018,0 hPa
00:04
1025,4 hPa
21:49
5,2 km/h
O-SO
17,4 km/h
06:49  
---
85 %78 %
12:29
94 %
03:39
10,7 klux34,5 klux
10:54
1:25 Std 
22.
Januar
-0,3 °C-3,0 °C
23:51
1,2 °C
13:25
1026,7 hPa1025,4 hPa
00:00
1028,9 hPa
22:36
4,5 km/h
O-SO
19,1 km/h
23:16  
---
88 %82 %
13:55
93 %
23:36
7,6 klux16,5 klux
12:45
--- 
23.
Januar
-3,7 °C-5,0 °C
07:46
-3,0 °C
00:01
1026,4 hPa1024,8 hPa
14:51
1028,1 hPa
03:26
8,5 km/h
O-SO
21,4 km/h
12:46  
---
93 %91 %
16:06
96 %
08:56
4,3 klux10,3 klux
12:31
--- 
24.
Januar
-2,1 °C-3,1 °C
00:06
-0,6 °C
14:41
1024,8 hPa1024,5 hPa
14:41
1025,8 hPa
22:47
6,2 km/h
O-SO
17,1 km/h
15:36  
2,3 l/m²
8:26 Stunden
91 %89 %
11:51
95 %
22:16
8,2 klux18,8 klux
11:51
--- 
25.
Januar
-2,7 °C-3,8 °C
06:47
-1,4 °C
14:27
1029,1 hPa1025,8 hPa
00:02
1034,1 hPa
23:43
0,3 km/h
W-NW
5,4 km/h
14:57  
4,9 l/m²
10:10 Stunden
93 %88 %
14:37
97 %
06:27
9,5 klux26,9 klux
12:07
--- 
26.
Januar
-5,7 °C-12,2 °C
23:59
-2,6 °C
00:03
1037,7 hPa1034,1 hPa
00:03
1041,7 hPa
23:49
5,4 km/h
NO
19,9 km/h
15:08  
---
86 %74 %
15:08
96 %
02:28
15,3 klux47,3 klux
13:08
3:30 Std 
27.
Januar
-9,2 °C-16,3 °C
05:24
-3,4 °C
19:54
1029,9 hPa1012,4 hPa
23:25
1040,9 hPa
01:49
6,9 km/h
W-SW
31,3 km/h
22:14  
---
84 %69 %
19:44
91 %
23:35
12,0 klux29,6 klux
13:19
20 Min 
28.
Januar
-0,5 °C-3,6 °C
00:00
1,4 °C
11:35
1006,1 hPa1001,6 hPa
23:15
1012,4 hPa
00:00
16,6 km/h
W
36,4 km/h
04:50  
1,5 l/m²
10:15 Stunden
96 %87 %
11:45
99 %
16:10
11,7 klux50,0 klux
10:50
1:00 Std 
29.
Januar
-0,0 °C-1,2 °C
23:51
0,5 °C
13:10
990,3 hPa981,8 hPa
19:10
1001,6 hPa
00:00
5,5 km/h
W-NW
26,7 km/h
19:50  
2,3 l/m²
15:34 Stunden
99 %93 %
23:26
99 %
00:00
8,5 klux18,8 klux
12:25
--- 
30.
Januar
-2,5 °C-4,9 °C
23:52
-1,0 °C
12:56
993,5 hPa986,2 hPa
00:01
1002,2 hPa
23:52
12,6 km/h
W
37,9 km/h
07:21  
1,1 l/m²
2:20 Stunden
95 %91 %
16:51
97 %
12:06
9,1 klux36,1 klux
12:56
55 Min 
31.
Januar
-2,8 °C-5,9 °C
00:32
0,4 °C
14:37
1005,3 hPa1002,1 hPa
06:12
1009,3 hPa
21:57
9,3 km/h
W-SW
25,5 km/h
16:52  
---
92 %85 %
14:52
96 %
00:02
16,2 klux61,4 klux
12:37
1:55 Std 



Januar
2010

Temperatur

  

Luftdruck

  

Wind

  

Regen

  

Luftfeuchte

  

Helligkeit

Sonnen-
schein

Ø

Min

Max

Ø

Min

Max

Ø

Max

Max

Ø

Min

Max

Ø

Max

Max

-3,1 °C

-16,3 °C

05:24 Uhr
27.01.2010

4,3 °C

13:21 Uhr
18.01.2010

1015,9 hPa

981,8 hPa

19:10 Uhr
29.01.2010

1041,7 hPa

23:49 Uhr
26.01.2010

5,9 km/h

O-SO

37,9 km/h

07:21 Uhr
30.01.2010

7,9 l/m²

12:31 Stunden
17.01.2010

92 %

69 %

19:44 Uhr
27.01.2010

99 %

00:04 Uhr
01.01.2010

8,6 klux

61,40 klux

12:37 Uhr
31.01.2010

7:00 Std

am
05.01.2010

Gesamt

Gesamt

29,2 l/m²

21 Tage
98:54 h

26:20 Std


Wetter-Diagramme Januar 2010     Heinzenberg / Taunus   
TemperaturLuftfeuchte
SolarstrahlungLuftdruck
HelligkeitSonnenschein
RegenmengeRegendauer
Wind-GeschwindigkeitWind-Richtung